| time (UTC) | temp F | wind direction | speed MPH | gust MPH | rain 1hr in | rain 24hr in | rain mn in | humidity % | barometer mb |
| 20260504050311 | 70 | 36 | 1.0 | 2.0 | 0.00 | 0.00 | 0.00 | 99 | 1014.3 |
| 20260504045808 | 70 | 27 | 0.0 | 0.0 | 0.00 | 0.00 | 0.00 | 99 | 1014.6 |
| 20260504045304 | 70 | 332 | 1.0 | 2.0 | 0.00 | 0.00 | 0.00 | 99 | 1015.0 |
| 20260504044800 | 70 | 332 | 2.0 | 3.0 | 0.00 | 0.00 | 0.00 | 99 | 1014.7 |
| 20260504044258 | 70 | 33 | 0.0 | 1.0 | 0.00 | 0.00 | 0.00 | 99 | 1014.6 |
| 20260504043755 | 71 | 336 | 0.0 | 0.0 | 0.00 | 0.00 | 0.00 | 99 | 1014.5 |
| 20260504043251 | 71 | 4 | 1.0 | 2.0 | 0.00 | 0.00 | 0.00 | 99 | 1014.7 |
| 20260504042749 | 71 | 38 | 1.0 | 2.0 | 0.00 | 0.00 | 0.00 | 99 | 1014.6 |
| 20260504042245 | 71 | 345 | 1.0 | 1.0 | 0.00 | 0.00 | 0.00 | 99 | 1014.7 |
| 20260504041742 | 71 | 39 | 1.0 | 2.0 | 0.00 | 0.00 | 0.00 | 99 | 1015.0 |
| 20260504041238 | 71 | 323 | 1.0 | 1.0 | 0.00 | 0.00 | 0.00 | 99 | 1015.1 |
| 20260504040734 | 71 | 345 | 1.0 | 2.0 | 0.00 | 0.00 | 0.00 | 99 | 1014.7 |
| 20260504040232 | 71 | 39 | 0.0 | 1.0 | 0.00 | 0.00 | 0.00 | 99 | 1014.8 |
| 20260504035728 | 71 | 3 | 0.0 | 1.0 | 0.00 | 1.17 | 1.17 | 99 | 1014.5 |
| 20260504035225 | 71 | 337 | 0.0 | 1.0 | 0.00 | 1.17 | 1.17 | 99 | 1014.6 |
| 20260504034723 | 71 | 10 | 1.0 | 1.0 | 0.00 | 1.17 | 1.17 | 99 | 1014.5 |
| 20260504034220 | 71 | 342 | 2.0 | 3.0 | 0.00 | 1.17 | 1.17 | 99 | 1014.6 |
| 20260504033717 | 71 | 345 | 0.0 | 1.0 | 0.00 | 1.17 | 1.17 | 99 | 1014.8 |
| 20260504033215 | 71 | 343 | 2.0 | 3.0 | 0.00 | 1.17 | 1.17 | 99 | 1014.9 |
| 20260504032711 | 72 | 344 | 2.0 | 2.0 | 0.00 | 1.17 | 1.17 | 98 | 1014.8 |
| 20260504032209 | 72 | 339 | 2.0 | 2.0 | 0.00 | 1.17 | 1.17 | 98 | 1014.8 |
| 20260504031705 | 72 | 357 | 1.0 | 2.0 | 0.00 | 1.17 | 1.17 | 98 | 1014.9 |
| 20260504031202 | 72 | 335 | 3.0 | 3.0 | 0.00 | 1.17 | 1.17 | 98 | 1014.7 |
| 20260504030658 | 72 | 0 | 3.0 | 3.0 | 0.00 | 1.17 | 1.17 | 98 | 1014.9 |
| 20260504030156 | 72 | 322 | 1.0 | 2.0 | 0.00 | 1.17 | 1.17 | 98 | 1014.9 |
| 20260504025652 | 72 | 3 | 2.0 | 3.0 | 0.00 | 1.17 | 1.17 | 98 | 1015.1 |
| 20260504025149 | 72 | 332 | 2.0 | 2.0 | 0.00 | 1.17 | 1.17 | 98 | 1015.0 |
| 20260504024646 | 72 | 353 | 2.0 | 2.0 | 0.00 | 1.17 | 1.17 | 98 | 1015.1 |
| 20260504024142 | 72 | 334 | 2.0 | 2.0 | 0.00 | 1.17 | 1.17 | 98 | 1015.2 |
| 20260504023639 | 72 | 330 | 1.0 | 2.0 | 0.00 | 1.17 | 1.17 | 98 | 1015.0 |
| 20260504023130 | 72 | 332 | 2.0 | 3.0 | 0.00 | 1.17 | 1.17 | 98 | 1015.0 |
| 20260504022626 | 72 | 335 | 0.0 | 1.0 | 0.00 | 1.17 | 1.17 | 98 | 1015.0 |
| 20260504022121 | 72 | 352 | 1.0 | 1.0 | 0.00 | 1.17 | 1.17 | 98 | 1014.8 |
| 20260504021620 | 72 | 330 | 1.0 | 2.0 | 0.00 | 1.17 | 1.17 | 98 | 1014.9 |
| 20260504021116 | 72 | 330 | 1.0 | 2.0 | 0.00 | 1.17 | 1.17 | 98 | 1014.8 |
| 20260504020614 | 72 | 327 | 2.0 | 2.0 | 0.00 | 1.17 | 1.17 | 98 | 1014.8 |
| 20260504020109 | 72 | 354 | 0.0 | 0.0 | 0.00 | 1.17 | 1.17 | 98 | 1014.4 |
| 20260504015606 | 72 | 348 | 2.0 | 4.0 | 0.00 | 1.17 | 1.17 | 98 | 1014.4 |
| 20260504015102 | 72 | 349 | 2.0 | 2.0 | 0.00 | 1.17 | 1.17 | 98 | 1014.5 |
| 20260504014558 | 72 | 330 | 2.0 | 2.0 | 0.00 | 1.17 | 1.17 | 98 | 1014.5 |
| 20260504014056 | 72 | 348 | 2.0 | 2.0 | 0.00 | 1.17 | 1.17 | 98 | 1014.4 |
| 20260504013553 | 72 | 355 | 0.0 | 1.0 | 0.00 | 1.17 | 1.17 | 98 | 1014.3 |
| 20260504013050 | 72 | 335 | 2.0 | 2.0 | 0.00 | 1.17 | 1.17 | 98 | 1014.3 |
| 20260504012547 | 72 | 341 | 1.0 | 2.0 | 0.00 | 1.17 | 1.17 | 97 | 1014.5 |
| 20260504012045 | 72 | 333 | 2.0 | 2.0 | 0.00 | 1.17 | 1.17 | 97 | 1014.3 |
| 20260504011542 | 72 | 356 | 3.0 | 4.0 | 0.00 | 1.17 | 1.17 | 97 | 1014.3 |
| 20260504011038 | 73 | 332 | 3.0 | 4.0 | 0.00 | 1.17 | 1.17 | 97 | 1014.6 |
| 20260504010533 | 73 | 358 | 2.0 | 3.0 | 0.00 | 1.17 | 1.17 | 97 | 1014.3 |
| 20260504010030 | 73 | 331 | 2.0 | 2.0 | 0.00 | 1.17 | 1.17 | 97 | 1014.3 |
| 20260504005527 | 73 | 348 | 2.0 | 2.0 | 0.00 | 1.17 | 1.17 | 97 | 1014.4 |
| 20260504005024 | 73 | 5 | 1.0 | 2.0 | 0.00 | 1.17 | 1.17 | 97 | 1014.5 |
| 20260504004522 | 73 | 11 | 3.0 | 4.0 | 0.00 | 1.17 | 1.17 | 96 | 1014.3 |
| 20260504004019 | 73 | 355 | 2.0 | 4.0 | 0.00 | 1.17 | 1.17 | 96 | 1014.2 |
| 20260504003515 | 74 | 331 | 1.0 | 1.0 | 0.00 | 1.17 | 1.17 | 96 | 1014.2 |
| 20260504003012 | 74 | 20 | 2.0 | 2.0 | 0.00 | 1.17 | 1.17 | 96 | 1014.1 |
| 20260504002509 | 74 | 353 | 3.0 | 3.0 | 0.00 | 1.17 | 1.17 | 96 | 1014.1 |
| 20260504002006 | 74 | 332 | 1.0 | 2.0 | 0.00 | 1.17 | 1.17 | 96 | 1014.0 |
| 20260504001503 | 74 | 11 | 3.0 | 3.0 | 0.00 | 1.17 | 1.17 | 95 | 1013.9 |
| 20260504000959 | 75 | 19 | 3.0 | 3.0 | 0.00 | 1.17 | 1.17 | 95 | 1014.1 |
| 20260504000457 | 75 | 11 | 2.0 | 2.0 | 0.00 | 1.17 | 1.17 | 94 | 1013.8 |
| 20260503235954 | 75 | 346 | 2.0 | 4.0 | 0.00 | 1.17 | 1.17 | 94 | 1013.8 |
| 20260503235452 | 75 | 57 | 0.0 | 1.0 | 0.00 | 1.17 | 1.17 | 94 | 1013.8 |
| 20260503234949 | 75 | 22 | 1.0 | 1.0 | 0.00 | 1.17 | 1.17 | 94 | 1013.6 |
| 20260503234446 | 75 | 43 | 3.0 | 4.0 | 0.00 | 1.17 | 1.17 | 94 | 1013.6 |
| 20260503233945 | 75 | 328 | 1.0 | 2.0 | 0.00 | 1.17 | 1.17 | 95 | 1013.6 |
| 20260503233440 | 75 | 351 | 1.0 | 1.0 | 0.00 | 1.17 | 1.17 | 95 | 1013.8 |
| 20260503232937 | 75 | 38 | 0.0 | 1.0 | 0.00 | 1.17 | 1.17 | 95 | 1013.7 |
| 20260503232434 | 75 | 331 | 2.0 | 2.0 | 0.00 | 1.17 | 1.17 | 95 | 1013.7 |
| 20260503231932 | 75 | 340 | 0.0 | 1.0 | 0.00 | 1.17 | 1.17 | 94 | 1013.7 |
| 20260503231429 | 76 | 81 | 2.0 | 2.0 | 0.00 | 1.17 | 1.17 | 94 | 1013.6 |
| 20260503230926 | 76 | 6 | 2.0 | 3.0 | 0.00 | 1.17 | 1.17 | 94 | 1013.5 |
| 20260503230422 | 76 | 31 | 1.0 | 1.0 | 0.00 | 1.17 | 1.17 | 93 | 1013.4 |
| 20260503225920 | 76 | 330 | 3.0 | 3.0 | 0.00 | 1.17 | 1.17 | 93 | 1013.3 |
| 20260503225416 | 76 | 333 | 1.0 | 1.0 | 0.00 | 1.17 | 1.17 | 93 | 1013.3 |
| 20260503224912 | 76 | 337 | 4.0 | 4.0 | 0.00 | 1.17 | 1.17 | 93 | 1013.2 |
| 20260503224409 | 76 | 19 | 1.0 | 2.0 | 0.00 | 1.17 | 1.17 | 94 | 1013.2 |
| 20260503223907 | 76 | 9 | 3.0 | 4.0 | 0.00 | 1.17 | 1.17 | 94 | 1013.3 |
| 20260503223405 | 76 | 346 | 2.0 | 2.0 | 0.00 | 1.17 | 1.17 | 94 | 1013.2 |
| 20260503222900 | 76 | 6 | 2.0 | 2.0 | 0.00 | 1.17 | 1.17 | 93 | 1013.3 |
| 20260503222359 | 76 | 345 | 2.0 | 2.0 | 0.00 | 1.17 | 1.17 | 93 | 1013.5 |
| 20260503221856 | 76 | 353 | 1.0 | 2.0 | 0.00 | 1.17 | 1.17 | 93 | 1013.5 |
| 20260503221355 | 76 | 357 | 0.0 | 1.0 | 0.00 | 1.17 | 1.17 | 93 | 1013.3 |
| 20260503220850 | 76 | 343 | 1.0 | 1.0 | 0.00 | 1.17 | 1.17 | 93 | 1013.4 |
| 20260503220347 | 76 | 324 | 3.0 | 3.0 | 0.00 | 1.17 | 1.17 | 93 | 1013.5 |
| 20260503215844 | 76 | 353 | 1.0 | 1.0 | 0.00 | 1.17 | 1.17 | 93 | 1013.6 |
| 20260503215342 | 77 | 7 | 4.0 | 6.0 | 0.00 | 1.17 | 1.17 | 93 | 1013.6 |
| 20260503214839 | 77 | 337 | 4.0 | 4.0 | 0.00 | 1.17 | 1.17 | 92 | 1013.6 |
| 20260503214336 | 77 | 31 | 2.0 | 3.0 | 0.00 | 1.17 | 1.17 | 91 | 1013.6 |
| 20260503213833 | 78 | 337 | 4.0 | 4.0 | 0.00 | 1.17 | 1.17 | 90 | 1013.7 |
| 20260503213331 | 78 | 339 | 1.0 | 1.0 | 0.00 | 1.17 | 1.17 | 91 | 1013.6 |
| 20260503212828 | 77 | 331 | 3.0 | 3.0 | 0.00 | 1.17 | 1.17 | 90 | 1013.9 |
| 20260503212326 | 78 | 340 | 1.0 | 1.0 | 0.00 | 1.17 | 1.17 | 91 | 1013.7 |
| 20260503211823 | 78 | 350 | 2.0 | 2.0 | 0.00 | 1.17 | 1.17 | 90 | 1013.7 |
| 20260503211319 | 78 | 36 | 4.0 | 4.0 | 0.00 | 1.17 | 1.17 | 90 | 1013.9 |
| 20260503210819 | 78 | 354 | 2.0 | 2.0 | 0.00 | 1.17 | 1.17 | 89 | 1013.8 |
| 20260503210317 | 78 | 355 | 0.0 | 1.0 | 0.00 | 1.17 | 1.17 | 89 | 1013.9 |
| 20260503205812 | 78 | 354 | 2.0 | 4.0 | 0.00 | 1.17 | 1.17 | 89 | 1013.9 |
| 20260503205309 | 78 | 332 | 1.0 | 1.0 | 0.00 | 1.17 | 1.17 | 88 | 1014.0 |
| 20260503204805 | 78 | 6 | 3.0 | 3.0 | 0.00 | 1.17 | 1.17 | 88 | 1013.9 |
| 20260503204303 | 79 | 332 | 3.0 | 3.0 | 0.00 | 1.17 | 1.17 | 88 | 1014.1 |
| 20260503203800 | 79 | 41 | 1.0 | 1.0 | 0.00 | 1.17 | 1.17 | 87 | 1014.0 |
| 20260503203257 | 80 | 40 | 1.0 | 1.0 | 0.00 | 1.17 | 1.17 | 85 | 1013.9 |
| 20260503202754 | 80 | 341 | 0.0 | 1.0 | 0.00 | 1.17 | 1.17 | 85 | 1014.0 |
| 20260503202252 | 80 | 47 | 0.0 | 1.0 | 0.00 | 1.17 | 1.17 | 87 | 1013.9 |
| 20260503201744 | 80 | 33 | 2.0 | 2.0 | 0.00 | 1.17 | 1.17 | 87 | 1013.9 |
| 20260503201241 | 80 | 39 | 1.0 | 1.0 | 0.00 | 1.17 | 1.17 | 87 | 1014.0 |
| 20260503200738 | 79 | 1 | 0.0 | 0.0 | 0.00 | 1.17 | 1.17 | 88 | 1013.9 |
| 20260503200234 | 79 | 333 | 2.0 | 3.0 | 0.00 | 1.17 | 1.17 | 88 | 1013.8 |
| 20260503195731 | 79 | 68 | 1.0 | 1.0 | 0.00 | 1.17 | 1.17 | 88 | 1013.9 |
| 20260503195228 | 80 | 40 | 2.0 | 3.0 | 0.00 | 1.17 | 1.17 | 87 | 1014.0 |
| 20260503194726 | 80 | 108 | 1.0 | 2.0 | 0.00 | 1.17 | 1.17 | 87 | 1014.1 |
| 20260503194221 | 79 | 359 | 1.0 | 1.0 | 0.00 | 1.17 | 1.17 | 88 | 1014.1 |
| 20260503193718 | 79 | 340 | 0.0 | 0.0 | 0.00 | 1.17 | 1.17 | 89 | 1014.4 |
| 20260503193214 | 79 | 3 | 1.0 | 1.0 | 0.00 | 1.17 | 1.17 | 88 | 1014.3 |
| 20260503192709 | 79 | 340 | 2.0 | 3.0 | 0.00 | 1.17 | 1.17 | 88 | 1014.6 |
| 20260503192205 | 79 | 68 | 3.0 | 4.0 | 0.00 | 1.17 | 1.17 | 89 | 1014.6 |
| 20260503191702 | 80 | 336 | 0.0 | 0.0 | 0.00 | 1.17 | 1.17 | 88 | 1014.6 |
| 20260503191159 | 80 | 54 | 0.0 | 0.0 | 0.00 | 1.17 | 1.17 | 86 | 1014.5 |
| 20260503190656 | 80 | 312 | 4.0 | 6.0 | 0.00 | 1.17 | 1.17 | 86 | 1014.7 |
| 20260503190152 | 80 | 41 | 0.0 | 0.0 | 0.00 | 1.17 | 1.17 | 88 | 1014.8 |
| 20260503185649 | 80 | 37 | 1.0 | 1.0 | 0.00 | 1.17 | 1.17 | 89 | 1015.0 |
| 20260503185144 | 81 | 332 | 2.0 | 3.0 | 0.00 | 1.17 | 1.17 | 88 | 1014.9 |
| 20260503184640 | 80 | 333 | 2.0 | 2.0 | 0.00 | 1.17 | 1.17 | 90 | 1015.0 |
| 20260503184136 | 79 | 331 | 1.0 | 2.0 | 0.00 | 1.17 | 1.17 | 91 | 1014.9 |
| 20260503183633 | 78 | 337 | 1.0 | 1.0 | 0.00 | 1.17 | 1.17 | 91 | 1014.9 |
| 20260503183130 | 78 | 40 | 2.0 | 3.0 | 0.00 | 1.17 | 1.17 | 92 | 1014.9 |
| 20260503182628 | 78 | 340 | 1.0 | 2.0 | 0.00 | 1.17 | 1.17 | 93 | 1014.9 |
| 20260503182126 | 78 | 318 | 2.0 | 3.0 | 0.00 | 1.17 | 1.17 | 93 | 1014.9 |
| 20260503181623 | 78 | 331 | 4.0 | 6.0 | 0.00 | 1.17 | 1.17 | 93 | 1015.0 |
| 20260503181120 | 78 | 326 | 4.0 | 4.0 | 0.00 | 1.17 | 1.17 | 93 | 1015.1 |
| 20260503180617 | 78 | 338 | 2.0 | 3.0 | 0.00 | 1.17 | 1.17 | 93 | 1015.2 |
| 20260503180115 | 77 | 325 | 2.0 | 2.0 | 0.00 | 1.17 | 1.17 | 92 | 1015.1 |
| 20260503175611 | 77 | 352 | 2.0 | 2.0 | 0.00 | 1.17 | 1.17 | 91 | 1015.1 |
| 20260503175108 | 77 | 352 | 1.0 | 2.0 | 0.00 | 1.17 | 1.17 | 91 | 1015.3 |
| 20260503174605 | 78 | 330 | 2.0 | 2.0 | 0.00 | 1.17 | 1.17 | 91 | 1015.3 |
| 20260503174102 | 78 | 354 | 1.0 | 2.0 | 0.00 | 1.17 | 1.17 | 91 | 1015.3 |
| 20260503173557 | 78 | 330 | 3.0 | 3.0 | 0.00 | 1.17 | 1.17 | 90 | 1015.7 |
| 20260503173054 | 78 | 3 | 2.0 | 3.0 | 0.00 | 1.17 | 1.17 | 89 | 1015.5 |
| 20260503172551 | 79 | 350 | 3.0 | 3.0 | 0.00 | 1.17 | 1.17 | 89 | 1015.4 |
| 20260503172048 | 79 | 333 | 1.0 | 1.0 | 0.00 | 1.17 | 1.17 | 89 | 1015.4 |
| 20260503171544 | 79 | 34 | 2.0 | 3.0 | 0.00 | 1.17 | 1.17 | 89 | 1015.4 |
| 20260503171042 | 79 | 351 | 2.0 | 2.0 | 0.00 | 1.17 | 1.17 | 89 | 1015.4 |
| 20260503170538 | 79 | 10 | 1.0 | 1.0 | 0.00 | 1.17 | 1.17 | 88 | 1015.7 |
| 20260503150925 | 77 | 38 | 0.0 | 0.0 | 0.00 | 1.17 | 1.17 | 92 | 1016.0 |
| 20260503150421 | 77 | 40 | 1.0 | 1.0 | 0.00 | 1.17 | 1.17 | 93 | 1016.0 |
| 20260503131308 | 74 | 40 | 0.0 | 1.0 | 0.00 | 1.17 | 1.17 | 99 | 1014.1 |
| 20260503130806 | 73 | 0 | 0.0 | 0.0 | 0.00 | 1.17 | 1.17 | 99 | 1014.3 |
| 20260503130303 | 73 | 34 | 1.0 | 2.0 | 0.00 | 1.17 | 1.17 | 99 | 1014.2 |
| 20260503110651 | 72 | 320 | 0.0 | 0.0 | 0.00 | 1.17 | 1.17 | 99 | 1013.6 |
| 20260503110148 | 72 | 316 | 0.0 | 0.0 | 0.05 | 1.17 | 1.17 | 99 | 1013.4 |
| 20260503100115 | 72 | 328 | 2.0 | 2.0 | 0.12 | 0.07 | 0.07 | 99 | 1012.8 |
| 20260503081452 | 73 | 329 | 0.0 | 0.0 | 0.00 | 0.00 | 0.00 | 95 | 1013.0 |
| 20260503080949 | 73 | 329 | 0.0 | 0.0 | 0.00 | 0.00 | 0.00 | 95 | 1013.1 |
| 20260503080445 | 73 | 329 | 0.0 | 0.0 | 0.00 | 0.00 | 0.00 | 95 | 1013.0 |
| 20260503072916 | 73 | 328 | 1.0 | 1.0 | 0.00 | 0.00 | 0.00 | 94 | 1012.8 |
| 20260503072413 | 73 | 333 | 3.0 | 3.0 | 0.00 | 0.00 | 0.00 | 94 | 1012.7 |
| 20260503071909 | 74 | 326 | 3.0 | 4.0 | 0.00 | 0.00 | 0.00 | 94 | 1012.8 |
| 20260503071402 | 74 | 333 | 4.0 | 4.0 | 0.00 | 0.00 | 0.00 | 94 | 1012.7 |
| 20260503070857 | 75 | 332 | 3.0 | 3.0 | 0.00 | 0.00 | 0.00 | 94 | 1012.6 |
| 20260503070355 | 75 | 330 | 4.0 | 4.0 | 0.00 | 0.00 | 0.00 | 94 | 1012.5 |